Time,TemperatureF,DewpointF,PressureIn,WindDirection,WindDirectionDegrees,WindSpeedMPH,WindSpeedGustMPH,Humidity,HourlyPrecipIn,Conditions,Clouds,dailyrainin,SoftwareType,DateUTC
2013-03-01 00:00:00,44.2,43.0,30.39,West,264,0.0,0.0,95,0.00,,,0.00,weatherlink.com 1.10,2013-03-01 08:00:00,
2013-03-01 00:14:00,43.9,42.0,30.39,West,264,0.0,0.0,94,0.00,,,0.00,weatherlink.com 1.10,2013-03-01 08:14:00,
2013-03-01 00:29:00,44.0,43.0,30.39,West,264,0.0,0.0,95,0.00,,,0.00,weatherlink.com 1.10,2013-03-01 08:29:00,
2013-03-01 00:44:00,43.8,43.0,30.39,West,264,0.0,0.0,95,0.00,,,0.00,weatherlink.com 1.10,2013-03-01 08:44:00,
2013-03-01 00:59:00,43.8,43.0,30.39,West,264,0.0,0.0,95,0.00,,,0.00,weatherlink.com 1.10,2013-03-01 08:59:00,
2013-03-01 01:14:00,43.5,42.0,30.39,West,264,0.0,0.0,95,0.00,,,0.00,weatherlink.com 1.10,2013-03-01 09:14:00,
2013-03-01 01:29:00,43.2,42.0,30.40,West,264,0.0,0.0,95,0.00,,,0.00,weatherlink.com 1.10,2013-03-01 09:29:00,
2013-03-01 01:44:00,42.8,42.0,30.40,West,264,0.0,0.0,95,0.00,,,0.00,weatherlink.com 1.10,2013-03-01 09:44:00,
2013-03-01 01:59:00,42.4,41.0,30.39,West,264,0.0,0.0,95,0.00,,,0.00,weatherlink.com 1.10,2013-03-01 09:59:00,
2013-03-01 02:14:00,42.3,41.0,30.39,West,264,0.0,0.0,95,0.00,,,0.00,weatherlink.com 1.10,2013-03-01 10:14:00,
2013-03-01 02:29:00,42.3,41.0,30.39,West,264,0.0,0.0,95,0.00,,,0.00,weatherlink.com 1.10,2013-03-01 10:29:00,
2013-03-01 02:44:00,42.2,41.0,30.39,West,264,0.0,0.0,95,0.00,,,0.00,weatherlink.com 1.10,2013-03-01 10:44:00,
2013-03-01 02:59:00,42.0,41.0,30.39,West,264,0.0,0.0,95,0.00,,,0.00,weatherlink.com 1.10,2013-03-01 10:59:00,
2013-03-01 03:14:00,41.9,41.0,30.39,West,264,0.0,0.0,96,0.00,,,0.00,weatherlink.com 1.10,2013-03-01 11:14:00,
2013-03-01 03:29:00,41.5,40.0,30.39,West,264,0.0,0.0,95,0.00,,,0.00,weatherlink.com 1.10,2013-03-01 11:29:00,
2013-03-01 03:44:00,41.5,41.0,30.38,West,264,0.0,0.0,96,0.00,,,0.00,weatherlink.com 1.10,2013-03-01 11:44:00,
2013-03-01 03:59:00,41.4,40.0,30.38,West,264,0.0,0.0,96,0.00,,,0.00,weatherlink.com 1.10,2013-03-01 11:59:00,
2013-03-01 04:14:00,41.2,40.0,30.38,West,264,0.0,0.0,96,0.00,,,0.00,weatherlink.com 1.10,2013-03-01 12:14:00,
2013-03-01 04:29:00,41.0,40.0,30.38,West,264,0.0,0.0,96,0.00,,,0.00,weatherlink.com 1.10,2013-03-01 12:29:00,
2013-03-01 04:44:00,40.9,40.0,30.38,West,264,0.0,0.0,96,0.00,,,0.00,weatherlink.com 1.10,2013-03-01 12:44:00,
2013-03-01 04:59:00,41.2,40.0,30.37,West,264,0.0,0.0,96,0.00,,,0.00,weatherlink.com 1.10,2013-03-01 12:59:00,
2013-03-01 05:14:00,41.2,40.0,30.38,West,264,0.0,0.0,96,0.00,,,0.00,weatherlink.com 1.10,2013-03-01 13:14:00,
2013-03-01 05:29:00,41.2,40.0,30.37,West,264,0.0,0.0,96,0.00,,,0.00,weatherlink.com 1.10,2013-03-01 13:29:00,
2013-03-01 05:44:00,41.0,40.0,30.37,West,264,0.0,0.0,96,0.00,,,0.00,weatherlink.com 1.10,2013-03-01 13:44:00,
2013-03-01 05:59:00,40.3,39.0,30.37,West,264,0.0,0.0,96,0.00,,,0.00,weatherlink.com 1.10,2013-03-01 13:59:00,
2013-03-01 06:14:00,40.1,39.0,30.37,West,264,0.0,0.0,96,0.00,,,0.00,weatherlink.com 1.10,2013-03-01 14:14:00,
2013-03-01 06:29:00,40.1,39.0,30.37,West,264,0.0,0.0,96,0.00,,,0.00,weatherlink.com 1.10,2013-03-01 14:29:00,
2013-03-01 06:44:00,39.9,39.0,30.37,West,264,0.0,0.0,96,0.00,,,0.00,weatherlink.com 1.10,2013-03-01 14:44:00,
2013-03-01 06:59:00,39.7,39.0,30.36,West,264,0.0,0.0,96,0.00,,,0.00,weatherlink.com 1.10,2013-03-01 14:59:00,
2013-03-01 07:14:00,39.9,39.0,30.36,West,264,0.0,0.0,96,0.00,,,0.00,weatherlink.com 1.10,2013-03-01 15:14:00,
2013-03-01 07:29:00,41.2,40.0,30.36,West,264,0.0,0.0,97,0.00,,,0.00,weatherlink.com 1.10,2013-03-01 15:29:00,
2013-03-01 07:44:00,42.4,42.0,30.36,West,264,0.0,0.0,97,0.00,,,0.00,weatherlink.com 1.10,2013-03-01 15:44:00,
2013-03-01 07:59:00,43.7,43.0,30.36,West,264,0.0,0.0,97,0.00,,,0.00,weatherlink.com 1.10,2013-03-01 15:59:00,
2013-03-01 08:14:00,45.7,45.0,30.36,West,264,0.0,0.0,97,0.00,,,0.00,weatherlink.com 1.10,2013-03-01 16:14:00,
2013-03-01 08:29:00,48.1,47.0,30.36,West,264,0.0,0.0,97,0.00,,,0.00,weatherlink.com 1.10,2013-03-01 16:29:00,
2013-03-01 08:45:00,49.4,49.0,30.36,West,264,0.0,0.0,97,0.00,,,0.00,weatherlink.com 1.10,2013-03-01 16:45:00,
2013-03-01 09:00:00,50.8,50.0,30.36,South,169,1.0,1.0,97,0.00,,,0.00,weatherlink.com 1.10,2013-03-01 17:00:00,
2013-03-01 09:15:00,52.9,52.0,30.36,SW,224,0.0,2.0,96,0.00,,,0.00,weatherlink.com 1.10,2013-03-01 17:15:00,
2013-03-01 09:30:00,54.6,51.0,30.36,SE,141,0.0,2.0,88,0.00,,,0.00,weatherlink.com 1.10,2013-03-01 17:30:00,
2013-03-01 09:45:00,54.5,51.0,30.36,SSW,201,0.0,2.0,87,0.00,,,0.00,weatherlink.com 1.10,2013-03-01 17:45:00,
2013-03-01 10:00:00,55.9,52.0,30.36,WSW,237,0.0,2.0,85,0.00,,,0.00,weatherlink.com 1.10,2013-03-01 18:00:00,
2013-03-01 10:15:00,58.1,53.0,30.35,SSW,206,0.0,1.0,82,0.00,,,0.00,weatherlink.com 1.10,2013-03-01 18:15:00,
2013-03-01 10:30:00,60.3,53.0,30.34,SSW,213,0.0,2.0,78,0.00,,,0.00,weatherlink.com 1.10,2013-03-01 18:30:00,
2013-03-01 10:45:00,61.9,52.0,30.34,East,86,0.0,2.0,69,0.00,,,0.00,weatherlink.com 1.10,2013-03-01 18:45:00,
2013-03-01 11:00:00,63.6,52.0,30.34,WNW,302,0.0,2.0,67,0.00,,,0.00,weatherlink.com 1.10,2013-03-01 19:00:00,
2013-03-01 11:15:00,66.4,52.0,30.33,SW,236,0.0,2.0,61,0.00,,,0.00,weatherlink.com 1.10,2013-03-01 19:15:00,
2013-03-01 11:30:00,67.9,49.0,30.33,ESE,117,0.0,1.0,51,0.00,,,0.00,weatherlink.com 1.10,2013-03-01 19:30:00,
2013-03-01 11:45:00,69.0,49.0,30.32,SW,236,0.0,2.0,50,0.00,,,0.00,weatherlink.com 1.10,2013-03-01 19:45:00,
2013-03-01 12:00:00,70.9,51.0,30.31,SW,231,0.0,2.0,50,0.00,,,0.00,weatherlink.com 1.10,2013-03-01 20:00:00,
2013-03-01 12:15:00,70.8,51.0,30.30,WSW,243,1.0,2.0,50,0.00,,,0.00,weatherlink.com 1.10,2013-03-01 20:15:00,
2013-03-01 12:30:00,72.8,52.0,30.29,South,177,1.0,2.0,48,0.00,,,0.00,weatherlink.com 1.10,2013-03-01 20:30:00,
2013-03-01 12:46:00,73.2,51.0,30.28,ENE,66,2.0,4.0,45,0.00,,,0.00,weatherlink.com 1.10,2013-03-01 20:46:00,
2013-03-01 13:01:00,73.7,52.0,30.27,SSW,198,0.0,4.0,46,0.00,,,0.00,weatherlink.com 1.10,2013-03-01 21:01:00,
2013-03-01 13:31:00,74.7,51.0,30.26,WSW,255,0.0,2.0,43,0.00,,,0.00,weatherlink.com 1.10,2013-03-01 21:31:00,
2013-03-01 13:46:00,74.9,50.0,30.25,WSW,256,0.0,2.0,41,0.00,,,0.00,weatherlink.com 1.10,2013-03-01 21:46:00,
2013-03-01 14:01:00,75.9,49.0,30.24,NE,56,0.0,1.0,39,0.00,,,0.00,weatherlink.com 1.10,2013-03-01 22:01:00,
2013-03-01 14:16:00,75.2,50.0,30.23,SSE,150,0.0,3.0,41,0.00,,,0.00,weatherlink.com 1.10,2013-03-01 22:16:00,
2013-03-01 14:31:00,76.0,47.0,30.23,SW,220,0.0,3.0,36,0.00,,,0.00,weatherlink.com 1.10,2013-03-01 22:31:00,
2013-03-01 14:46:00,77.3,49.0,30.23,WSW,239,0.0,2.0,37,0.00,,,0.00,weatherlink.com 1.10,2013-03-01 22:46:00,
2013-03-01 15:01:00,76.7,48.0,30.22,WSW,238,0.0,2.0,37,0.00,,,0.00,weatherlink.com 1.10,2013-03-01 23:01:00,
2013-03-01 15:16:00,77.0,49.0,30.22,WSW,248,0.0,2.0,38,0.00,,,0.00,weatherlink.com 1.10,2013-03-01 23:16:00,
2013-03-01 15:31:00,77.4,49.0,30.22,SSW,199,0.0,1.0,37,0.00,,,0.00,weatherlink.com 1.10,2013-03-01 23:31:00,
2013-03-01 15:46:00,76.0,47.0,30.22,WSW,244,0.0,2.0,36,0.00,,,0.00,weatherlink.com 1.10,2013-03-01 23:46:00,
2013-03-01 16:01:00,75.6,47.0,30.21,WSW,238,0.0,1.0,37,0.00,,,0.00,weatherlink.com 1.10,2013-03-02 00:01:00,
2013-03-01 16:16:00,72.2,48.0,30.21,WSW,250,0.0,1.0,43,0.00,,,0.00,weatherlink.com 1.10,2013-03-02 00:16:00,
2013-03-01 16:31:00,69.9,51.0,30.21,WSW,245,0.0,1.0,51,0.00,,,0.00,weatherlink.com 1.10,2013-03-02 00:31:00,
2013-03-01 16:46:00,69.0,52.0,30.20,NE,51,0.0,1.0,54,0.00,,,0.00,weatherlink.com 1.10,2013-03-02 00:46:00,
2013-03-01 17:01:00,68.0,51.0,30.20,SW,224,0.0,1.0,55,0.00,,,0.00,weatherlink.com 1.10,2013-03-02 01:01:00,
2013-03-01 17:16:00,66.8,50.0,30.20,South,176,0.0,1.0,56,0.00,,,0.00,weatherlink.com 1.10,2013-03-02 01:16:00,
2013-03-01 17:31:00,65.6,50.0,30.20,South,175,0.0,0.0,58,0.00,,,0.00,weatherlink.com 1.10,2013-03-02 01:31:00,
2013-03-01 17:46:00,63.4,50.0,30.20,South,175,0.0,0.0,63,0.00,,,0.00,weatherlink.com 1.10,2013-03-02 01:46:00,
2013-03-01 18:01:00,60.8,51.0,30.20,South,178,0.0,0.0,69,0.00,,,0.00,weatherlink.com 1.10,2013-03-02 02:01:00,
2013-03-01 18:16:00,58.8,51.0,30.21,South,178,0.0,0.0,74,0.00,,,0.00,weatherlink.com 1.10,2013-03-02 02:16:00,
2013-03-01 18:31:00,57.2,50.0,30.21,South,178,0.0,0.0,77,0.00,,,0.00,weatherlink.com 1.10,2013-03-02 02:31:00,
2013-03-01 18:46:00,55.5,49.0,30.21,South,178,0.0,0.0,79,0.00,,,0.00,weatherlink.com 1.10,2013-03-02 02:46:00,
2013-03-01 19:01:00,54.2,49.0,30.21,South,178,0.0,0.0,81,0.00,,,0.00,weatherlink.com 1.10,2013-03-02 03:01:00,
2013-03-01 19:16:00,53.2,49.0,30.21,South,178,0.0,0.0,84,0.00,,,0.00,weatherlink.com 1.10,2013-03-02 03:16:00,
2013-03-01 19:31:00,52.3,48.0,30.22,South,178,0.0,0.0,85,0.00,,,0.00,weatherlink.com 1.10,2013-03-02 03:31:00,
2013-03-01 19:46:00,51.5,48.0,30.22,South,178,0.0,0.0,87,0.00,,,0.00,weatherlink.com 1.10,2013-03-02 03:46:00,
2013-03-01 20:01:00,51.0,48.0,30.22,South,178,0.0,0.0,88,0.00,,,0.00,weatherlink.com 1.10,2013-03-02 04:01:00,
2013-03-01 20:16:00,50.3,47.0,30.23,South,178,0.0,0.0,88,0.00,,,0.00,weatherlink.com 1.10,2013-03-02 04:16:00,
2013-03-01 20:31:00,49.7,47.0,30.23,South,178,0.0,0.0,89,0.00,,,0.00,weatherlink.com 1.10,2013-03-02 04:31:00,
2013-03-01 20:46:00,49.2,47.0,30.22,South,178,0.0,0.0,90,0.00,,,0.00,weatherlink.com 1.10,2013-03-02 04:46:00,
2013-03-01 21:01:00,48.8,46.0,30.22,South,178,0.0,0.0,90,0.00,,,0.00,weatherlink.com 1.10,2013-03-02 05:01:00,
2013-03-01 21:16:00,48.3,45.0,30.22,South,178,0.0,0.0,89,0.00,,,0.00,weatherlink.com 1.10,2013-03-02 05:16:00,
2013-03-01 21:31:00,47.5,45.0,30.22,South,178,0.0,0.0,90,0.00,,,0.00,weatherlink.com 1.10,2013-03-02 05:31:00,
2013-03-01 21:46:00,46.6,44.0,30.22,South,178,0.0,0.0,91,0.00,,,0.00,weatherlink.com 1.10,2013-03-02 05:46:00,
2013-03-01 22:01:00,46.0,44.0,30.22,South,178,0.0,0.0,92,0.00,,,0.00,weatherlink.com 1.10,2013-03-02 06:01:00,
2013-03-01 22:16:00,45.6,44.0,30.22,South,178,0.0,0.0,93,0.00,,,0.00,weatherlink.com 1.10,2013-03-02 06:16:00,
2013-03-01 22:31:00,45.2,43.0,30.21,South,178,0.0,0.0,93,0.00,,,0.00,weatherlink.com 1.10,2013-03-02 06:31:00,
2013-03-01 22:46:00,44.9,43.0,30.21,South,178,0.0,0.0,93,0.00,,,0.00,weatherlink.com 1.10,2013-03-02 06:46:00,
2013-03-01 23:01:00,44.7,43.0,30.21,South,178,0.0,0.0,94,0.00,,,0.00,weatherlink.com 1.10,2013-03-02 07:01:00,
2013-03-01 23:16:00,44.6,43.0,30.21,South,178,0.0,0.0,94,0.00,,,0.00,weatherlink.com 1.10,2013-03-02 07:16:00,
2013-03-01 23:31:00,44.3,43.0,30.21,South,178,0.0,0.0,94,0.00,,,0.00,weatherlink.com 1.10,2013-03-02 07:31:00,
2013-03-01 23:46:00,44.5,43.0,30.22,South,178,0.0,0.0,95,0.00,,,0.00,weatherlink.com 1.10,2013-03-02 07:46:00,